User: anonymous   Login
Location: Lone Wolf Observatory
(41.0360°N, 89.2260°W)
Time: 17:04:26
(UTC-06:00)
Language:

Cosmos 1378 Rocket - Orbit

View from above orbital plane
View from above orbital plane
View from above satellite
View from above satellite

Ground track
Ground track

The orbit data is extracted from the following two-line orbital elements,

1 13272U 82059B   14352.17025850  .00000522  00000-0  59468-4 0  9403
2 13272 082.5124 275.9383 0017415 245.9146 114.0248 14.84193787756599
Epoch (UTC): 18 December 2014 04:05:10
Eccentricity: 0.0017415
inclination: 82.5124°
perigee height: 604 km
apogee height: 628 km
right ascension of ascending node: 275.9383°
argument of perigee: 245.9146°
revolutions per day: 14.84193787
mean anomaly at epoch: 114.0248°
orbit number at epoch: 75659

The dashed part of the orbit path shows where the satellite is in the earth's shadow,  

DLR